Knox Cnty, Mount Vernon, OH, OH

9:15 AM EDT on July 16, 2019 (GMT -0400)
Knox Cnty, Mount Vernon, OH

Weather History for K4I3 - June, 2019

Change the Weather History Date:

Wednesday, June 5, 2019

  Actual Average (WUND) Record (WUND)
Temperature  
Mean Temperature 70 °F -  
Max Temperature 77 °F - - (-1)
Min Temperature 62 °F - - (-1)
Cooling Degree Days 4    
Growing Degree Days 20 (Base 50)    
Moisture  
Dew Point 65 °F    
Average Humidity 89    
Maximum Humidity 100    
Minimum Humidity 78    
Precipitation  
Precipitation 1.11 in - - ()
Sea Level Pressure  
Sea Level Pressure 29.84 in    
Wind  
Wind Speed 6 mph (SSW)    
Max Wind Speed 15 mph    
Max Gust Speed 37 mph    
Visibility 9 miles    
Events Rain , Thunderstorm    
Averages and records for this station are not official NWS values.
T = Trace of Precipitation, MM = Missing Value Source: NWS Daily Summary

Daily Weather History Graph

Daily Weather History Graph

Search for Another Location

Airport or City:

Astronomy

Jun. 05, 2019 Rise Set
Actual Time 6:00 AM EDT 8:56 PM EDT
Civil Twilight 5:28 AM EDT 9:29 PM EDT
Nautical Twilight 4:47 AM EDT 10:10 PM EDT
Astronomical Twilight 3:59 AM EDT 10:58 PM EDT
Moon 8:04 AM EDT (6/5) 11:21 PM EDT (6/5)
Length of Visible Light 16h 00m
Length of Day
14h 55m
Waxing Crescent, 6% of the Moon is Illuminated
Jun 5
Waxing Crescent
Jun 10
First Quarter
Jun 17
Full
Jun 25
Last Quarter
Jul 2
New

Hourly Weather History & Observations

Time (EDT) Temp. Dew Point Humidity Pressure Visibility Wind Dir Wind Speed Gust Speed Precip Events Conditions
12:16 AM 66.2 °F 59.0 °F 78% 29.95 in 10.0 mi South 5.8 mph - N/A   Scattered Clouds
12:36 AM 66.2 °F 59.0 °F 78% 29.95 in 10.0 mi South 4.6 mph - N/A   Scattered Clouds
12:55 AM 66.2 °F 59.0 °F 78% 29.95 in 10.0 mi South 4.6 mph - N/A   Scattered Clouds
1:16 AM 66.2 °F 59.0 °F 78% 29.94 in 10.0 mi South 5.8 mph - N/A   Scattered Clouds
1:35 AM 66.2 °F 59.0 °F 78% 29.93 in 10.0 mi South 5.8 mph - N/A   Scattered Clouds
1:55 AM 66.2 °F 59.0 °F 78% 29.93 in 10.0 mi SSW 4.6 mph - N/A   Clear
2:16 AM 66.2 °F 59.0 °F 78% 29.92 in 10.0 mi SSW 4.6 mph - N/A   Clear
2:36 AM 64.4 °F 59.0 °F 83% 29.93 in 10.0 mi SW 3.5 mph - N/A   Scattered Clouds
2:55 AM 66.2 °F 59.0 °F 78% 29.92 in 10.0 mi SW 3.5 mph - N/A   Scattered Clouds
3:16 AM 66.2 °F 59.0 °F 78% 29.92 in 10.0 mi SW 3.5 mph - N/A   Scattered Clouds
3:35 AM 66.2 °F 59.0 °F 78% 29.91 in 10.0 mi SSW 3.5 mph - N/A   Scattered Clouds
3:55 AM 66.2 °F 59.0 °F 78% 29.91 in 10.0 mi SSW 3.5 mph - N/A   Scattered Clouds
4:16 AM 66.2 °F 59.0 °F 78% 29.90 in 10.0 mi SSW 3.5 mph - N/A   Scattered Clouds
4:35 AM 64.4 °F 59.0 °F 83% 29.89 in 10.0 mi South 3.5 mph - N/A   Scattered Clouds
4:55 AM 64.4 °F 59.0 °F 83% 29.88 in 10.0 mi SSE 3.5 mph - N/A   Clear
5:16 AM 64.4 °F 59.0 °F 83% 29.88 in 10.0 mi South 3.5 mph - N/A   Clear
5:36 AM 64.4 °F 59.0 °F 83% 29.88 in 10.0 mi SSE 3.5 mph - N/A   Scattered Clouds
5:56 AM 62.6 °F 59.0 °F 88% 29.88 in 10.0 mi South 4.6 mph - N/A   Clear
6:17 AM 62.6 °F 59.0 °F 88% 29.88 in 10.0 mi South 3.5 mph - N/A   Clear
6:35 AM 62.6 °F 59.0 °F 88% 29.88 in 10.0 mi South 3.5 mph - N/A   Clear
6:55 AM 62.6 °F 59.0 °F 88% 29.88 in 10.0 mi South 4.6 mph - N/A   Clear
7:15 AM 64.4 °F 60.8 °F 88% 29.88 in 10.0 mi South 4.6 mph - N/A   Clear
7:36 AM 64.4 °F 60.8 °F 88% 29.86 in 10.0 mi South 4.6 mph - N/A   Clear
7:56 AM 66.2 °F 62.6 °F 88% 29.86 in 10.0 mi South 8.1 mph - N/A   Clear
8:15 AM 68.0 °F 62.6 °F 83% 29.86 in 10.0 mi SSW 8.1 mph - N/A   Clear
8:36 AM 64.4 °F 62.6 °F 94% 29.86 in 10.0 mi WSW 4.6 mph - 0.01 in Rain , Thunderstorm Light Thunderstorms and Rain
8:55 AM 64.4 °F 64.4 °F 100% 29.88 in 2.0 mi WSW 5.8 mph - 0.21 in Rain , Thunderstorm Heavy Thunderstorms and Rain
9:15 AM 64.4 °F 64.4 °F 100% 29.88 in 5.0 mi SW 6.9 mph - 0.01 in Rain , Thunderstorm Rain
9:35 AM 64.4 °F 64.4 °F 100% 29.88 in 4.0 mi SSW 6.9 mph - 0.02 in Rain Light Rain
9:55 AM 64.4 °F 64.4 °F 100% 29.87 in 4.0 mi SSW 5.8 mph - 0.04 in Rain Rain
10:15 AM 66.2 °F 66.2 °F 100% 29.86 in 5.0 mi South 4.6 mph - N/A   Mostly Cloudy
10:36 AM 68.0 °F 68.0 °F 100% 29.85 in 7.0 mi South 6.9 mph - N/A   Mostly Cloudy
10:56 AM 68.0 °F 68.0 °F 100% 29.85 in 7.0 mi South 5.8 mph - N/A   Mostly Cloudy
11:15 AM 69.8 °F 69.8 °F 100% 29.84 in 10.0 mi South 8.1 mph - N/A   Overcast
11:36 AM 69.8 °F 68.0 °F 94% 29.84 in 10.0 mi South 9.2 mph - N/A   Mostly Cloudy
12:15 PM 69.8 °F 68.0 °F 94% 29.84 in 10.0 mi South 5.8 mph - N/A   Mostly Cloudy
12:36 PM 71.6 °F 68.0 °F 88% 29.83 in 10.0 mi South 11.5 mph - N/A   Mostly Cloudy
12:56 PM 71.6 °F 68.0 °F 88% 29.83 in 10.0 mi SSW 12.7 mph 17.3 mph N/A   Mostly Cloudy
1:16 PM 73.4 °F 69.8 °F 88% 29.82 in 10.0 mi South 10.4 mph 17.3 mph N/A   Overcast
1:35 PM 75.2 °F 69.8 °F 83% 29.82 in 10.0 mi SW 13.8 mph 19.6 mph N/A   Overcast
1:55 PM 75.2 °F 69.8 °F 83% 29.82 in 10.0 mi SSW 10.4 mph 19.6 mph N/A   Mostly Cloudy
2:15 PM 75.2 °F 69.8 °F 83% 29.81 in 10.0 mi SSW 13.8 mph 21.9 mph N/A   Mostly Cloudy
2:35 PM 75.2 °F 69.8 °F 83% 29.80 in 10.0 mi SSW 8.1 mph 23.0 mph N/A   Mostly Cloudy
2:56 PM 75.2 °F 68.0 °F 78% 29.79 in 10.0 mi SSW 10.4 mph 16.1 mph N/A   Mostly Cloudy
3:15 PM 75.2 °F 68.0 °F 78% 29.79 in 10.0 mi SSW 6.9 mph 17.3 mph N/A   Mostly Cloudy
3:35 PM 77.0 °F 69.8 °F 78% 29.78 in 10.0 mi SSW 13.8 mph 21.9 mph N/A   Mostly Cloudy
3:55 PM 75.2 °F 69.8 °F 83% 29.77 in 10.0 mi South 9.2 mph 21.9 mph N/A   Mostly Cloudy
4:15 PM 75.2 °F 69.8 °F 83% 29.77 in 10.0 mi SSW 11.5 mph 17.3 mph N/A   Mostly Cloudy
4:35 PM 77.0 °F 69.8 °F 78% 29.77 in 10.0 mi SW 6.9 mph 19.6 mph N/A   Scattered Clouds
4:56 PM 75.2 °F 69.8 °F 83% 29.76 in 10.0 mi SSW 6.9 mph 16.1 mph N/A   Scattered Clouds
5:16 PM 75.2 °F 69.8 °F 83% 29.76 in 10.0 mi SSW 9.2 mph - N/A   Scattered Clouds
5:35 PM 75.2 °F 69.8 °F 83% 29.76 in 10.0 mi SE 3.5 mph - N/A Thunderstorm Thunderstorm
5:56 PM 69.8 °F 68.0 °F 94% 29.77 in 5.0 mi South 5.8 mph 21.9 mph 0.07 in Rain Light Rain
6:15 PM 71.6 °F 69.8 °F 94% 29.76 in 10.0 mi WSW 3.5 mph - N/A   Scattered Clouds
6:35 PM 73.4 °F 71.6 °F 94% 29.76 in 10.0 mi SW 4.6 mph - N/A Thunderstorm Scattered Clouds
6:56 PM 75.2 °F 69.8 °F 83% 29.75 in 10.0 mi West 5.8 mph - N/A   Scattered Clouds
7:16 PM 75.2 °F 71.6 °F 89% 29.75 in 10.0 mi NE 6.9 mph - N/A   Mostly Cloudy
7:36 PM 71.6 °F 69.8 °F 94% 29.75 in 10.0 mi NNE 5.8 mph - N/A   Mostly Cloudy
7:55 PM 71.6 °F 69.8 °F 94% 29.76 in 10.0 mi Calm Calm - N/A   Mostly Cloudy
8:16 PM 71.6 °F 69.8 °F 94% 29.77 in 10.0 mi Calm Calm - N/A   Scattered Clouds
8:35 PM 71.6 °F 71.6 °F 100% 29.77 in 10.0 mi Calm Calm - N/A   Mostly Cloudy
8:55 PM 69.8 °F 69.8 °F 100% 29.76 in 10.0 mi Calm Calm - N/A   Mostly Cloudy
9:15 PM 69.8 °F 69.8 °F 100% 29.75 in 10.0 mi Calm Calm - N/A   Scattered Clouds
9:35 PM 69.8 °F 69.8 °F 100% 29.77 in 10.0 mi Calm Calm - N/A   Mostly Cloudy
9:55 PM 69.8 °F 69.8 °F 100% 29.78 in 10.0 mi Calm Calm - N/A   Overcast
10:15 PM 69.8 °F 69.8 °F 100% 29.78 in 10.0 mi Calm Calm - N/A Thunderstorm Thunderstorm
10:35 PM 69.8 °F 69.8 °F 100% 29.79 in 10.0 mi North 12.7 mph - N/A   Overcast
10:55 PM 66.2 °F 66.2 °F 100% 29.82 in 0.8 mi NW 15.0 mph 36.8 mph 0.58 in Rain , Thunderstorm Heavy Thunderstorms and Rain
11:16 PM 66.2 °F 66.2 °F 100% 29.83 in 5.0 mi West 8.1 mph - 0.12 in Rain Heavy Rain
11:36 PM 64.4 °F 64.4 °F 100% 29.83 in 7.0 mi WSW 4.6 mph - 0.20 in Rain Rain
11:55 PM 64.4 °F 64.4 °F 100% 29.82 in 10.0 mi WSW 4.6 mph - 0.21 in Rain Light Rain